{"data":{"norad_id":56963,"intl_designator":"2023-084AH","name":"ICEYE-X25","alt_names":[],"object_type":"PAYLOAD","status":"ACTIVE","operator":null,"country":"FIN","launch_date":"2023-06-12","launch_site_code":"AFWTR","launch_vehicle":null,"mission":null,"orbit_class":"UNKNOWN","rcs_meters":null,"size_class":null,"mass_kg":null,"dimensions":null,"purposes":[],"wikipedia_slug":null,"has_3d_model":false,"image_url":null,"decayed_at":null,"tle_current":{"epoch":"2026-05-25T03:34:47.708256Z","epoch_age_seconds":61919,"freshness":"FRESH","line1":"1 56963U 23084AH  26145.14916329  .00038264  00000+0  50606-3 0  9991","line2":"2 56963  97.5859 289.8461 0002613  41.4625 318.6828 15.58240228164381","mean_motion":15.58240228,"eccentricity":0.0002613,"inclination_deg":97.5859,"raan_deg":289.8461,"arg_perigee_deg":41.4625,"mean_anomaly_deg":318.6828,"bstar":0.00050606,"rev_number":16438,"period_min":92.41193842417,"perigee_km":390.98077904684,"apogee_km":394.51924459922,"semimajor_km":6770.887011823,"source":"CELESTRAK","updated_at":"2026-05-25T13:37:59.789876Z"}}}